Presure
147 125 118 144 123 115 147 110 116 161 116 128 97 108 114 111 129 117 145 115 132 106 148 159 158 165 156 176 169 175 183 139 103 192 181 166 215 205 206 209 203 203 166 198
150 135 126 148 145 127 119 107 125 121 136 143 116 127 111 123 164 100 159 160 136 152 153 151 150 165 169 162 171 180 94 128 89 98 84 217 199 178 103 188 173 158 210 200
139 116 129 128 121 116 110 119 124 122 92 116 131 97 100 107 149 108 108 123 149 147 153 169 138 80 166 176 186 92 241 86 93 223 212 179 158 80 88 209 164 118 101 203
142 126 111 107 115 115 110 133 138 124 127 151 145 125 85 147 118 69 144 144 128 141 170 168 87 153 173 184 88 192 167 85 216 210 98 182 100 181 110 116 113 174 218 211
115 109 117 115 141 118 146 158 145 124 128 150 128 142 71 84 116 77 79 85 75 165 100 90 155 177 167 84 96 206 135 235 224 189 190 86 97 183 153 211 156 228 226 128
135 127 152 131 137 141 127 128 141 147 160 119 132 153 155 166 140 94 101 164 115 170 163 164 179 155 133 228 232 205 216 207 202 192 76 136 157 241 224 163 224 213 227 221
124 124 126 122 126 146 138 151 154 145 150 158 134 124 158 160 156 158 156 165 170 136 81 172 170 209 218 243 159 213 219 217 209 196 246 235 243 244 224 208 226 229 227 218
143 153 137 157 156 153 152 134 163 163 148 159 155 167 160 157 164 161 162 166 180 178 209 191 199 237 82 236 219 230 223 246 168 290 88 251 135 210 257 189 231 234 235 218
151 143 154 147 131 134 164 142 149 155 168 172 150 158 165 167 166 168 174 193 183 193 213 222 228 209 258 220 251 212 187 257 320 310 208 305 259 249 244 201 242 174 162 200
134 145 147 141 137 137 159 162 147 150 161 168 162 157 154 168 178 206 179 187 247 225 235 226 233 234 234 223 217 294 131 284 322 323 335 314 273 253 214 296 206 184 185 224
130 147 145 134 155 155 152 143 149 149 152 165 181 179 165 176 213 234 236 161 237 191 275 246 222 260 271 273 288 225 300 290 311 313 323 316 281 267 230 204 127 201 204 186
162 199 131 155 143 146 163 166 164 170 165 227 221 217 69 76 87 226 287 253 243 90 293 295 291 282 276 279 84 290 95 292 309 306 313 324 308 276 240 227 289 207 190 195
204 200 203 191 155 167 167 167 190 213 178 196 240 268 237 255 297 298 294 278 79 235 301 148 298 286 239 271 279 281 290 286 301 302 294 309 318 134 262 229 124 262 227 201
185 192 194 189 199 199 210 229 178 191 201 204 184 186 251 60 172 297 183 303 305 307 308 311 312 299 282 281 283 279 285 290 182 286 286 291 206 300 261 248 236 229 288 229
208 235 223 211 233 228 166 216 276 230 305 225 296 295 283 298 207 219 352 392 495 466 449 443 408 295 287 292 170 289 287 292 275 267 275 272 288 140 239 264 237 232 230 223
256 209 191 251 246 172 273 270 266 255 298 290 287 299 294 291 314 337 331 338 253 442 407 428 414 412 286 280 285 97 294 283 266 261 266 270 277 253 304 244 239 236 244 246
238 249 260 251 242 250 279 261 264 292 280 279 287 292 338 328 326 318 325 326 338 359 181 395 389 386 387 349 268 272 275 268 259 249 246 244 267 287 315 241 239 229 228 232
244 239 242 236 256 265 274 285 287 145 70 256 285 323 318 316 313 319 332 305 297 333 180 389 374 371 366 364 367 259 255 245 243 244 235 237 243 269 309 246 228 231 228 232
243 236 235 226 227 274 267 279 277 177 99 278 278 333 327 138 356 325 332 313 270 325 307 408 382 366 355 353 352 355 358 357 113 266 238 229 227 243 300 283 238 216 223 227
229 239 214 254 267 286 274 270 267 275 274 279 311 316 311 324 219 340 329 246 319 322 332 381 392 363 346 343 342 342 122 360 376 381 368 338 236 229 275 270 262 236 228 217
234 230 250 267 276 270 266 264 272 276 309 327 307 321 341 394 366 354 330 329 326 334 217 343 414 362 342 335 335 336 339 358 215 366 359 347 288 230 235 297 270 244 240 226
226 243 257 272 267 259 259 268 264 262 302 161 298 335 402 419 143 381 351 335 324 329 312 330 358 394 340 331 324 328 328 261 350 353 353 340 167 149 229 120 268 262 238 232
262 257 269 259 237 251 255 262 258 296 290 308 312 424 405 330 385 393 367 341 319 329 319 324 344 393 167 329 319 318 317 331 94 115 354 213 119 250 224 256 262 254 244 236
257 266 264 250 242 251 257 247 283 290 299 263 345 422 354 400 452 391 351 325 132 327 318 336 335 387 462 331 304 78 120 297 96 341 324 361 295 252 241 248 278 242 247 237
268 262 254 240 217 245 243 291 289 295 265 327 390 463 434 462 423 377 358 336 328 322 332 323 337 395 414 80 321 77 85 144 294 196 95 252 295 253 248 238 273 264 248 241
252 252 244 242 247 235 292 278 282 275 267 334 409 459 438 389 355 347 337 268 326 339 96 239 92 192 119 403 331 78 306 294 303 315 97 340 288 251 237 246 256 281 262 240
Wind_Speed
66 67 58 70 63 56 74 48 57 79 56 70 42 61 74 51 64 54 77 53 68 55 75 79 81 90 75 103 103 110 113 65 39 99 61 58 80 78 77 75 73 72 62 70
74 71 70 78 75 67 61 47 65 70 72 80 58 76 74 74 89 54 92 88 67 79 81 79 83 97 107 98 104 109 23 48 26 37 24 72 67 62 29 65 61 61 70 67
75 62 67 75 67 63 55 63 62 67 33 63 70 36 49 63 84 60 46 62 80 80 84 102 72 19 103 116 120 23 90 21 40 79 73 63 58 31 29 66 72 50 44 67
81 77 62 55 66 65 54 77 85 72 76 92 85 76 2 96 56 18 92 73 56 77 103 101 34 97 116 127 18 87 80 27 76 72 35 69 42 66 42 48 52 67 63 64
69 60 74 67 85 69 93 101 92 72 76 95 72 89 19 32 66 32 32 34 29 106 54 52 102 115 108 14 34 103 63 89 80 68 70 41 39 71 56 68 68 65 63 38
89 79 98 93 90 96 84 84 98 102 111 69 77 98 111 118 92 47 72 112 70 117 109 110 125 97 69 106 100 98 93 92 82 72 32 59 83 76 74 57 64 60 59 57
88 80 89 87 91 105 101 108 110 103 105 113 77 87 116 115 105 120 112 121 121 88 34 119 104 122 95 99 76 96 91 90 85 80 77 76 71 75 67 65 66 63 56 55
101 108 105 116 116 112 109 88 121 120 109 114 119 126 120 111 111 113 118 122 139 129 141 135 128 105 29 99 96 93 90 79 73 69 35 68 47 67 72 57 62 58 54 52
112 105 116 110 104 104 129 111 117 120 132 132 112 119 138 120 115 119 133 148 140 148 138 124 112 94 88 92 90 88 70 77 66 66 49 58 62 59 62 58 58 55 38 42
105 112 116 115 112 114 129 131 102 111 122 127 120 115 130 130 132 154 135 144 116 130 118 113 110 104 99 93 87 68 41 67 62 61 55 52 45 54 60 56 48 55 45 50
106 118 117 108 130 131 127 108 113 106 112 126 145 141 163 133 139 139 135 85 125 84 94 100 101 89 84 79 73 56 63 64 60 57 54 52 52 52 60 47 31 54 51 51
140 134 106 130 121 123 142 141 137 144 129 136 151 131 24 32 53 141 100 118 122 35 90 88 80 77 82 75 31 67 38 60 57 56 50 45 49 51 59 65 49 53 59 61
118 121 123 138 126 144 147 144 142 140 147 141 130 102 121 117 96 97 99 97 19 111 94 58 84 75 71 76 70 67 63 59 54 56 50 45 43 33 56 64 42 55 65 67
121 126 127 132 128 135 128 120 148 158 149 130 111 71 114 6 51 98 58 104 105 103 98 96 86 76 76 73 68 64 65 59 39 54 46 44 37 49 58 63 69 66 58 69
115 96 102 109 101 105 128 136 94 97 100 130 97 93 100 97 61 67 86 75 51 53 58 64 71 74 74 70 41 61 62 61 53 51 48 45 42 22 54 57 67 65 66 71
85 114 122 80 87 130 92 95 96 97 99 99 101 97 101 99 92 85 86 86 51 40 52 51 48 49 70 66 63 34 58 58 51 48 48 45 45 41 54 65 66 67 71 73
90 80 80 78 85 90 96 95 98 100 100 103 101 101 85 88 88 87 85 79 77 66 34 40 38 35 41 51 63 61 58 54 53 48 46 45 44 42 51 66 67 70 67 69
86 79 80 81 95 98 101 104 99 44 19 94 101 92 90 88 89 90 84 78 76 71 61 39 34 31 34 38 41 60 59 56 55 53 49 48 47 46 50 67 67 71 72 70
85 79 81 88 95 98 101 97 98 60 35 105 99 89 91 39 81 81 80 77 71 71 54 42 40 31 33 34 37 41 44 46 26 63 55 53 51 53 50 62 79 76 77 74
78 90 87 101 99 90 93 94 96 98 93 96 96 97 99 99 47 74 81 60 73 67 65 45 39 33 35 36 36 39 15 39 38 42 53 62 56 55 52 59 70 84 80 77
89 88 97 96 89 86 87 93 97 96 87 81 95 96 101 86 84 76 69 74 70 55 43 52 34 36 36 37 36 38 38 32 24 38 49 57 63 59 56 58 72 82 77 81
85 96 94 88 86 87 90 91 96 94 90 46 96 102 80 57 20 67 67 61 62 51 51 49 41 35 39 38 37 35 36 24 33 37 44 55 26 30 56 29 71 73 81 79
92 91 84 79 83 86 90 90 91 90 95 91 97 74 59 46 44 48 51 49 53 45 46 42 39 24 21 40 37 36 36 31 19 19 38 26 30 60 55 58 71 75 80 84
87 81 76 74 82 84 84 84 86 89 91 81 99 60 48 47 33 34 28 36 22 39 38 38 36 28 28 42 35 16 19 29 27 32 29 32 58 58 59 60 67 71 81 84
73 70 67 71 76 77 82 73 80 79 77 90 81 52 31 26 17 15 20 28 33 29 31 33 35 32 22 19 39 25 29 26 26 26 37 27 53 58 58 57 59 73 80 85
69 67 65 68 71 71 58 71 73 72 68 84 51 39 19 11 8 9 13 18 26 21 17 25 24 19 19 23 40 31 30 24 22 18 42 22 49 55 54 56 54 61 75 81
Wind_Direction
270 272 274 277 278 281 281 287 288 293 289 290 286 289 288 289 295 300 294 298 296 283 302 307 309 310 301 312 311 311 310 305 303 302 298 297 294 293 291 288 288 286 287 286
272 270 275 276 276 281 283 281 283 287 287 288 291 294 288 293 298 289 301 300 304 301 302 305 308 310 311 310 308 310 287 293 312 313 284 293 291 292 298 286 285 296 281 283
272 275 277 278 280 278 279 284 283 282 293 286 290 303 291 291 298 295 300 296 296 298 301 307 308 331 307 308 309 315 302 280 316 295 296 295 293 291 298 279 294 295 294 279
273 276 275 272 279 280 274 281 285 284 286 290 292 288 99 297 304 314 297 298 297 303 304 305 298 308 310 311 317 303 303 300 298 294 283 288 291 286 291 292 291 294 273 273
274 274 278 277 283 280 283 289 287 286 288 287 290 288 295 290 297 283 295 300 309 304 303 296 305 310 309 278 297 302 299 299 298 288 289 289 282 286 280 276 294 272 273 285
274 275 283 279 282 281 282 284 284 286 291 293 289 291 292 296 297 306 289 302 304 305 306 308 309 308 301 300 298 299 299 297 296 287 292 281 287 274 275 280 272 272 269 268
276 276 278 280 280 282 280 287 288 287 290 291 294 291 293 295 298 299 302 303 304 305 302 307 303 303 297 294 298 297 296 295 295 293 277 276 273 271 271 272 270 269 265 263
278 283 279 284 284 283 285 285 286 287 285 286 292 293 292 293 296 298 300 302 302 302 300 303 302 297 278 296 296 296 294 288 288 275 291 272 283 274 263 271 268 270 265 264
281 279 282 278 279 281 287 284 285 286 289 290 292 294 294 296 297 299 300 298 301 302 301 301 298 298 291 295 292 293 293 286 277 274 278 268 265 263 264 264 261 276 266 267
275 276 278 279 278 281 284 285 287 289 288 288 290 294 293 295 300 296 300 301 292 297 297 299 298 297 297 296 293 284 283 282 278 275 270 262 262 261 258 254 244 268 249 247
273 274 275 277 280 282 283 287 288 291 293 293 291 293 293 299 293 294 295 299 296 299 292 295 297 291 288 289 287 283 283 282 278 275 270 260 255 250 249 248 270 239 229 243
278 277 278 276 279 280 280 281 284 287 290 291 292 296 316 312 296 295 292 293 296 292 292 289 287 288 287 286 288 284 292 279 274 273 269 260 250 239 242 246 244 239 244 227
280 278 279 278 278 278 281 283 285 285 290 289 291 291 289 291 295 294 293 291 318 297 289 293 287 284 281 282 281 280 278 276 271 269 267 263 246 274 236 241 270 233 229 239
276 279 278 277 281 281 284 289 286 286 288 291 291 298 290 280 295 294 295 293 292 290 287 284 281 280 278 276 274 272 272 271 277 266 262 260 264 232 233 234 238 239 237 227
279 283 281 279 286 286 284 284 300 294 311 293 303 304 300 301 295 294 302 307 296 294 288 277 277 276 272 270 277 265 264 264 259 260 260 254 252 253 235 229 236 237 237 235
295 279 281 295 293 282 307 304 299 293 309 304 303 306 303 303 307 309 308 308 307 301 290 291 281 272 269 268 265 283 257 255 256 255 255 252 250 240 232 226 232 230 230 231
290 295 303 300 293 298 310 300 301 310 307 305 305 306 310 309 308 307 307 310 311 318 292 298 284 272 263 261 261 260 256 253 254 251 253 254 248 242 237 227 231 236 239 236
299 296 298 294 305 310 308 310 311 294 276 303 305 310 307 305 305 305 305 304 305 311 297 289 277 261 255 254 253 259 260 259 258 253 250 249 245 242 237 225 233 231 235 235
299 297 299 289 286 309 305 310 307 303 299 305 306 307 306 297 306 302 301 301 300 307 311 286 273 252 247 246 246 249 251 252 295 249 249 249 245 244 235 224 226 239 236 235
295 303 285 307 308 311 309 307 305 304 305 306 310 312 311 308 303 297 297 301 302 305 305 301 274 251 242 241 240 244 289 249 247 241 236 232 241 243 235 223 221 227 236 242
300 301 304 307 310 308 307 306 304 304 315 319 311 314 314 295 290 286 286 291 292 297 293 300 280 249 235 237 238 241 246 244 264 241 234 228 225 239 239 221 220 229 232 237
298 303 305 309 310 307 306 306 308 311 311 310 316 320 308 302 268 280 275 278 281 287 286 295 299 263 231 230 237 240 245 253 241 243 235 226 257 265 239 286 220 225 231 235
300 302 306 307 302 306 306 307 309 312 315 317 322 314 304 295 290 266 270 268 277 279 280 288 290 306 268 228 232 238 245 243 311 304 242 263 302 226 237 227 219 226 226 233
300 302 303 303 302 305 306 308 313 313 316 322 329 319 303 300 284 260 258 262 266 276 280 287 287 304 271 223 234 311 295 250 313 253 258 239 217 224 232 232 222 232 231 234
298 299 302 301 298 305 308 311 311 317 324 334 334 327 312 300 260 250 265 260 267 281 287 282 288 312 264 303 219 316 312 300 252 292 308 272 216 222 229 236 229 229 232 236
296 298 300 300 302 304 306 309 314 319 329 340 341 344 349 10 343 298 269 268 281 286 263 280 273 299 298 214 210 313 235 249 248 250 301 241 213 221 232 234 236 236 236 242